Satellite: NOAA-11 Catalog number: 19531 Epoch time: 11062.26886831 Element set: 421 Inclination: 098.7531 deg RA of node: 151.7343 deg Eccentricity: 0.0011779 Arg of perigee: 127.6772 deg Mean anomaly: 232.5434 deg Mean motion: 14.14904417 rev/day Decay rate: -2.10e-06 rev/day^2 Epoch rev: 15777 Checksum: 293
Satellite: NOAA-12 Catalog number: 21263 Epoch time: 11062.32460272 Element set: 916 Inclination: 098.7570 deg RA of node: 080.3291 deg Eccentricity: 0.0013051 Arg of perigee: 131.5117 deg Mean anomaly: 228.7186 deg Mean motion: 14.25686577 rev/day Decay rate: 4.5e-07 rev/day^2 Epoch rev: 2932 Checksum: 278
Satellite: MET-3/5 Catalog number: 21655 Epoch time: 11061.92984833 Element set: 0053 Inclination: 082.5574 deg RA of node: 125.8561 deg Eccentricity: 0.0014689 Arg of perigee: 065.5994 deg Mean anomaly: 294.6673 deg Mean motion: 13.17024291 rev/day Decay rate: 5.1e-07 rev/day^2 Epoch rev: 93973 Checksum: 330
Satellite: MET-2/21 Catalog number: 22782 Epoch time: 11061.45022013 Element set: 0033 Inclination: 082.5450 deg RA of node: 047.5568 deg Eccentricity: 0.0023629 Arg of perigee: 041.2787 deg Mean anomaly: 319.0149 deg Mean motion: 13.83652970 rev/day Decay rate: 4.1e-07 rev/day^2 Epoch rev: 88379 Checksum: 290
Satellite: OKEAN-4 Catalog number: 23317 Epoch time: 11062.70660606 Element set: 489 Inclination: 082.5398 deg RA of node: 111.6314 deg Eccentricity: 0.0023832 Arg of perigee: 105.5142 deg Mean anomaly: 254.8735 deg Mean motion: 14.82950749 rev/day Decay rate: 4.82e-06 rev/day^2 Epoch rev: 88491 Checksum: 307
Satellite: NOAA-14 Catalog number: 23455 Epoch time: 11062.44670940 Element set: 399 Inclination: 098.8555 deg RA of node: 146.1201 deg Eccentricity: 0.0008776 Arg of perigee: 216.5462 deg Mean anomaly: 143.5104 deg Mean motion: 14.13807511 rev/day Decay rate: 4.0e-08 rev/day^2 Epoch rev: 83413 Checksum: 282
Satellite: NOAA-15 Catalog number: 25338 Epoch time: 11062.48412842 Element set: 729 Inclination: 098.6466 deg RA of node: 050.1220 deg Eccentricity: 0.0011368 Arg of perigee: 043.8278 deg Mean anomaly: 316.3819 deg Mean motion: 14.24887568 rev/day Decay rate: 1.83e-06 rev/day^2 Epoch rev: 66567 Checksum: 324
Satellite: RESURS Catalog number: 25394 Epoch time: 11061.60297698 Element set: 736 Inclination: 098.2997 deg RA of node: 070.4974 deg Eccentricity: 0.0001301 Arg of perigee: 145.2052 deg Mean anomaly: 214.9210 deg Mean motion: 14.24224173 rev/day Decay rate: -1.1e-07 rev/day^2 Epoch rev: 65713 Checksum: 278
Satellite: FENGYUN1 Catalog number: 25730 Epoch time: 11061.48005533 Element set: 270 Inclination: 098.8089 deg RA of node: 025.0602 deg Eccentricity: 0.0022094 Arg of perigee: 252.3434 deg Mean anomaly: 107.5316 deg Mean motion: 14.08509663 rev/day Decay rate: 3.37e-06 rev/day^2 Epoch rev: 60804 Checksum: 266
Satellite: OKEAN-0 Catalog number: 25860 Epoch time: 11061.90636093 Element set: 0245 Inclination: 097.8705 deg RA of node: 031.3591 deg Eccentricity: 0.0001288 Arg of perigee: 042.7097 deg Mean anomaly: 317.4211 deg Mean motion: 14.73716463 rev/day Decay rate: 1.28e-06 rev/day^2 Epoch rev: 62500 Checksum: 278
Satellite: NOAA-16 Catalog number: 26536 Epoch time: 11062.46944085 Element set: 210 Inclination: 099.1522 deg RA of node: 090.8134 deg Eccentricity: 0.0010016 Arg of perigee: 333.2884 deg Mean anomaly: 026.7766 deg Mean motion: 14.12600971 rev/day Decay rate: 2.00e-06 rev/day^2 Epoch rev: 53843 Checksum: 274
Satellite: NOAA-17 Catalog number: 27453 Epoch time: 11062.58767416 Element set: 205 Inclination: 098.3948 deg RA of node: 107.0816 deg Eccentricity: 0.0012744 Arg of perigee: 098.2453 deg Mean anomaly: 262.0189 deg Mean motion: 14.24241838 rev/day Decay rate: 2.18e-06 rev/day^2 Epoch rev: 45162 Checksum: 307
Satellite: NOAA-18 Catalog number: 28654 Epoch time: 11062.54822422 Element set: 688 Inclination: 098.9850 deg RA of node: 013.5017 deg Eccentricity: 0.0014988 Arg of perigee: 044.6559 deg Mean anomaly: 315.5792 deg Mean motion: 14.11443377 rev/day Decay rate: 3.63e-06 rev/day^2 Epoch rev: 29802 Checksum: 324
Satellite: NOAA-19 Catalog number: 33591 Epoch time: 11062.59296783 Element set: 882 Inclination: 098.8177 deg RA of node: 004.5728 deg Eccentricity: 0.0013330 Arg of perigee: 276.0882 deg Mean anomaly: 083.8737 deg Mean motion: 14.11136621 rev/day Decay rate: 3.29e-06 rev/day^2 Epoch rev: 10649 Checksum: 323
/EX SB KEPS @ AMSAT $ORB11062.M Orbital Elements 11062.MISC
HR AMSAT ORBITAL ELEMENTS FOR MANNED AND MISCELLANEOUS SATELLITES FROM WA5QGD FORT WORTH,TX March 3, 2011 Send Subscribe/unsubscribe to KEPS at http://www.amsat.org/mailman/listinfo/keps BID: ORB11062.M TO ALL RADIO AMATEURS BT
Satellite: HUBBLE Catalog number: 20580 Epoch time: 11062.21844846 Element set: 721 Inclination: 028.4712 deg RA of node: 348.5857 deg Eccentricity: 0.0003322 Arg of perigee: 078.4021 deg Mean anomaly: 281.6963 deg Mean motion: 15.01181443 rev/day Decay rate: 6.36e-06 rev/day^2 Epoch rev: 94371 Checksum: 279
Satellite: ISS Catalog number: 25544 Epoch time: 11062.66968330 Element set: 935 Inclination: 051.6480 deg RA of node: 342.0829 deg Eccentricity: 0.0005279 Arg of perigee: 039.9625 deg Mean anomaly: 033.1957 deg Mean motion: 15.72669582 rev/day Decay rate: 2.4457e-04 rev/day^2 Epoch rev: 70429 Checksum: 327
Satellite: CO-58 Catalog number: 28895 Epoch time: 11062.66500318 Element set: 814 Inclination: 097.9837 deg RA of node: 303.0429 deg Eccentricity: 0.0017283 Arg of perigee: 188.0914 deg Mean anomaly: 172.0020 deg Mean motion: 14.60016808 rev/day Decay rate: 2.15e-06 rev/day^2 Epoch rev: 28484 Checksum: 303
Satellite: FALCON Catalog number: 30776 Epoch time: 11061.92760360 Element set: 0034 Inclination: 035.4349 deg RA of node: 272.8750 deg Eccentricity: 0.0001749 Arg of perigee: 293.0256 deg Mean anomaly: 067.0279 deg Mean motion: 15.04157170 rev/day Decay rate: 9.36e-06 rev/day^2 Epoch rev: 21903 Checksum: 283
Satellite: MAST Catalog number: 31126 Epoch time: 11061.62482998 Element set: 0099 Inclination: 097.9067 deg RA of node: 094.8213 deg Eccentricity: 0.0095058 Arg of perigee: 141.9198 deg Mean anomaly: 218.8760 deg Mean motion: 14.53679587 rev/day Decay rate: 2.26e-06 rev/day^2 Epoch rev: 20560 Checksum: 332
Satellite: CAPE1 Catalog number: 31130 Epoch time: 11062.54436351 Element set: 118 Inclination: 097.9132 deg RA of node: 092.6232 deg Eccentricity: 0.0103431 Arg of perigee: 148.7594 deg Mean anomaly: 211.9780 deg Mean motion: 14.52299355 rev/day Decay rate: 2.94e-06 rev/day^2 Epoch rev: 20530 Checksum: 272
Satellite: COMPASS Catalog number: 32787 Epoch time: 11062.77090039 Element set: 923 Inclination: 097.8594 deg RA of node: 128.5124 deg Eccentricity: 0.0015892 Arg of perigee: 156.5532 deg Mean anomaly: 203.6412 deg Mean motion: 14.82167179 rev/day Decay rate: 9.97e-06 rev/day^2 Epoch rev: 15394 Checksum: 323
Satellite: AAUSAT2 Catalog number: 32788 Epoch time: 11062.67971755 Element set: 913 Inclination: 097.8590 deg RA of node: 128.6139 deg Eccentricity: 0.0015292 Arg of perigee: 158.2699 deg Mean anomaly: 201.9190 deg Mean motion: 14.82330820 rev/day Decay rate: 8.63e-06 rev/day^2 Epoch rev: 15394 Checksum: 328
Satellite: DO-64 Catalog number: 32789 Epoch time: 11061.70529631 Element set: 0930 Inclination: 097.8683 deg RA of node: 128.4740 deg Eccentricity: 0.0015770 Arg of perigee: 158.9709 deg Mean anomaly: 201.2153 deg Mean motion: 14.82634230 rev/day Decay rate: 1.098e-05 rev/day^2 Epoch rev: 15380 Checksum: 310
Satellite: CO-66 Catalog number: 32791 Epoch time: 11061.75415561 Element set: 0915 Inclination: 097.8612 deg RA of node: 127.4840 deg Eccentricity: 0.0016139 Arg of perigee: 159.0790 deg Mean anomaly: 201.1108 deg Mean motion: 14.81901442 rev/day Decay rate: 7.60e-06 rev/day^2 Epoch rev: 15374 Checksum: 292
Satellite: RS-30 Catalog number: 32953 Epoch time: 11062.54592523 Element set: 519 Inclination: 082.4978 deg RA of node: 228.3898 deg Eccentricity: 0.0018127 Arg of perigee: 256.2140 deg Mean anomaly: 103.6926 deg Mean motion: 12.43010621 rev/day Decay rate: 1.0e-07 rev/day^2 Epoch rev: 12596 Checksum: 284
Satellite: TACSAT-3 Catalog number: 35001 Epoch time: 11062.52820236 Element set: 519 Inclination: 040.4537 deg RA of node: 092.6982 deg Eccentricity: 0.0021485 Arg of perigee: 146.8256 deg Mean anomaly: 213.3913 deg Mean motion: 15.45163629 rev/day Decay rate: 9.896e-05 rev/day^2 Epoch rev: 10071 Checksum: 290
Satellite: PHARMSAT Catalog number: 35002 Epoch time: 11062.22737216 Element set: 483 Inclination: 040.4689 deg RA of node: 091.9906 deg Eccentricity: 0.0024246 Arg of perigee: 150.2562 deg Mean anomaly: 209.9638 deg Mean motion: 15.45316424 rev/day Decay rate: 7.678e-05 rev/day^2 Epoch rev: 10069 Checksum: 293
Satellite: HAWKSAT1 Catalog number: 35003 Epoch time: 11062.41356087 Element set: 531 Inclination: 040.4549 deg RA of node: 073.8505 deg Eccentricity: 0.0021103 Arg of perigee: 174.8135 deg Mean anomaly: 185.2893 deg Mean motion: 15.52976477 rev/day Decay rate: 2.9740e-04 rev/day^2 Epoch rev: 10091 Checksum: 284
Satellite: CP6 Catalog number: 35004 Epoch time: 11062.41053885 Element set: 535 Inclination: 040.4539 deg RA of node: 069.3068 deg Eccentricity: 0.0021892 Arg of perigee: 183.5147 deg Mean anomaly: 176.5509 deg Mean motion: 15.55522831 rev/day Decay rate: 3.8411e-04 rev/day^2 Epoch rev: 10095 Checksum: 292
Satellite: AEROCUB3 Catalog number: 35005 Epoch time: 11006.09222617 Element set: 610 Inclination: 040.4461 deg RA of node: 021.7975 deg Eccentricity: 0.0025578 Arg of perigee: 084.1677 deg Mean anomaly: 280.7191 deg Mean motion: 16.39196088 rev/day Decay rate: 1.4049365e-01 rev/day^2 Epoch rev: 9254 Checksum: 305
